Regional Weather Roundup
Issued by NWS State College, PA

Home | Current Version | Previous Version | Text Only | Print | Product List | Glossary On
Versions: 1 2 3 4 5 6 7 8 9 10 11 12 13 14 15 16 17 18 19 20 21 22 23 24 25 26 27 28 29 30 31 32 33 34 35 36 37 38 39 40 41 42 43 44 45 46 47 48 49 50
000
ASUS41 KCTP 290010
RWRCTP

REGIONAL WEATHER ROUNDUP
NATIONAL WEATHER SERVICE STATE COLLEGE PA
700 PM EST WED JAN 28 2015

Note: "fair" indicates few or no clouds below 12,000 feet with no
significant weather and/or obstructions to visibility.

* = STATION THAT DOES NOT REPORT PRECIPITATION /E.G. RAIN...SNOW...ETC/
    THUNDER OR FOG.

PAZ002>004-007>009-013>016-020>023-029>032-290100-
WESTERN PENNSYLVANIA

CITY           SKY/WX    TMP DP  RH WIND       PRES   REMARKS
ERIE           PTCLDY    16  11  80 CALM      30.32R
MEADVILLE      PTCLDY    20   1  43 SW3       30.27R
FRANKLIN*      PTCLDY    18  -2  41 SW3       30.28S
NEW CASTLE     FAIR      18   3  51 CALM      30.32R
BEAVER COUNTY  CLEAR     21   7  53 S3        30.29S
BUTLER*        PTCLDY    18   7  62 S3        30.31S
PITTSBURGH INT MOCLDY    20  11  68 S3        30.30S
PITTSBURGH     PTCLDY    21   6  52 CALM      30.30R
INDIANA*       CLEAR     14  10  85 CALM      30.33R
LATROBE        CLEAR     16   9  73 MISG      30.33S
WASHINGTON CO* PTCLDY    16  12  86 CALM      30.31F
$$

PAZ004>006-010>012-017>019-024>028-033>037-041-042-045-046-049>053-290100-
CENTRAL PENNSYLVANIA

CITY           SKY/WX    TMP DP  RH WIND       PRES   REMARKS
BRADFORD       CLEAR     16  -2  45 CALM      30.21R
DUBOIS         CLEAR     17   3  54 SW6       30.24R WCI   9
CLEARFIELD     CLEAR     19   5  54 SW3       30.26R
JOHNSTOWN      PTCLDY    14   6  70 W6        30.21S WCI   5
ALTOONA        CLEAR     17   5  59 W7        30.26R WCI   8
STATE COLLEGE  CLEAR     21   7  53 W10       30.26R WCI  10
WILLIAMSPORT   CLEAR     27  -3  27 NW5       30.28R
SELINSGROVE    CLEAR     20   6  55 CALM      30.28R
FT INDIANTOWN  CLEAR     31   0  26 VRB6      30.25R
CAPITAL CITY   CLEAR     26   6  42 SW7       30.27R
HARRISBURG     PTCLDY    22   7  52 W8        30.27R WCI  12
YORK           CLEAR     17   4  56 CALM      30.26R
$$

PAZ038>040-043-044-047-048-054-055-060>062-067>071-290100-
EASTERN PENNSYLVANIA

CITY           SKY/WX    TMP DP  RH WIND       PRES   REMARKS
SCRANTON       CLEAR     24   4  42 N14G26    30.24R WCI  12
MOUNT POCONO   CLEAR     19   2  47 NW21G29   30.11R WCI   3
ALLENTOWN      CLEAR     26   1  34 N7        30.24R
QUAKERTOWN*    CLEAR     27   1  33 N5        30.23R
READING        CLEAR     28   2  32 W5        30.25R
LANCASTER      CLEAR     24   5  44 NW8       30.25R
COATESVILLE    CLEAR     28   7  40 NW10      30.23R
POTTSTOWN      CLEAR     25   2  37 CALM      30.25R
BLUE BELL      CLEAR     30   3  31 NW3       30.22R
DOYLESTOWN     CLEAR     25   4  40 NW7       30.21R
WILLOW GROVE   NOT AVBL
NORTH PHILA    CLEAR     31   2  29 NW9       30.24R
PHILADELPHIA   CLEAR     32   3  29 NW8       30.25R
$$



USA.gov is the U.S. government's official web portal to all federal, state and local government web resources and services.